Location: W�rzburg
(49.7529°N, 9.8822°E)
Time: 22:10:41
(UTC+02:00)

ISS - Visible Passes

Search period start: 25 September 2020 00:00
Search period end: 05 October 2020 00:00
Orbit: 419 x 420 km, 51.6° (Epoch: 26 September)

Date Brightness Start Highest point End Pass type
(mag) Time Alt. Az. Time Alt. Az. Time Alt. Az.
25 Sep -3.4 20:58:06 10° W 21:01:28 60° N 21:02:08 47° NE visible
25 Sep -0.3 22:35:01 10° WNW 22:35:06 11° WNW 22:35:06 11° WNW visible
26 Sep -3.4 20:10:40 10° W 20:14:01 62° N 20:16:31 17° ENE visible
26 Sep -1.8 21:47:38 10° WNW 21:49:28 30° WNW 21:49:28 30° WNW visible
27 Sep -3.7 21:00:13 10° WNW 21:03:35 69° N 21:03:50 65° NE visible
28 Sep -3.5 20:12:47 10° WNW 20:16:08 62° N 20:18:11 21° E visible
28 Sep -1.4 21:49:39 10° WNW 21:51:09 24° W 21:51:09 24° W visible
29 Sep -3.8 21:02:13 10° WNW 21:05:30 80° SW 21:05:30 80° SW visible
30 Sep -3.8 20:14:46 10° WNW 20:18:09 81° NNE 20:19:53 27° E visible
30 Sep -1.0 21:51:46 10° W 21:52:51 17° W 21:52:51 17° W visible
01 Oct -3.6 19:27:19 10° WNW 19:30:42 69° N 19:34:04 10° E visible
01 Oct -2.9 21:04:13 10° WNW 21:07:15 42° SW 21:07:15 42° SW visible
02 Oct -3.4 20:16:43 10° WNW 20:20:03 60° SSW 20:21:42 27° SE visible
02 Oct -0.5 21:54:29 10° WSW 21:54:40 11° WSW 21:54:40 11° WSW visible
03 Oct -3.7 19:29:14 10° WNW 19:32:38 81° SSW 19:36:00 10° ESE visible
03 Oct -1.7 21:06:29 10° W 21:09:05 21° SW 21:09:10 21° SW visible
04 Oct -2.2 20:18:46 10° W 20:21:46 30° SW 20:23:45 17° SSE visible
